Time,TemperatureF,DewpointF,PressureIn,WindDirection,WindDirectionDegrees,WindSpeedMPH,WindSpeedGustMPH,Humidity,HourlyPrecipIn,Conditions,Clouds,dailyrainin,SoftwareType,DateUTC
2013-01-02 00:04:00,38.1,28.8,30.25,North,0,0.0,0.0,69,0.00,,,0.00,WUHU216HW,2013-01-02 06:04:00,
2013-01-02 00:09:00,38.1,28.8,30.25,North,0,0.0,0.0,69,0.00,,,0.00,WUHU216HW,2013-01-02 06:09:00,
2013-01-02 00:14:00,38.1,28.8,30.25,North,0,0.0,0.0,69,0.00,,,0.00,WUHU216HW,2013-01-02 06:14:00,
2013-01-02 00:19:00,38.1,28.8,30.25,NW,315,0.0,0.0,69,0.00,,,0.00,WUHU216HW,2013-01-02 06:19:00,
2013-01-02 00:24:00,37.9,28.6,30.25,NNW,338,0.0,0.0,69,0.00,,,0.00,WUHU216HW,2013-01-02 06:24:00,
2013-01-02 00:29:00,37.9,28.6,30.25,North,0,0.0,0.0,69,0.00,,,0.00,WUHU216HW,2013-01-02 06:29:00,
2013-01-02 00:35:00,38.1,28.8,30.24,NNW,338,0.0,0.0,69,0.00,,,0.00,WUHU216HW,2013-01-02 06:35:00,
2013-01-02 00:40:00,37.9,28.6,30.24,West,270,0.0,0.0,69,0.00,,,0.00,WUHU216HW,2013-01-02 06:40:00,
2013-01-02 00:45:00,37.9,29.0,30.24,North,0,0.0,0.0,70,0.00,,,0.00,WUHU216HW,2013-01-02 06:45:00,
2013-01-02 00:50:00,37.7,28.9,30.24,North,0,0.0,0.0,70,0.00,,,0.00,WUHU216HW,2013-01-02 06:50:00,
2013-01-02 00:55:00,37.9,29.0,30.24,North,0,0.0,4.9,70,0.00,,,0.00,WUHU216HW,2013-01-02 06:55:00,
2013-01-02 01:00:00,37.5,28.7,30.24,NNW,338,0.0,4.9,70,0.00,,,0.00,WUHU216HW,2013-01-02 07:00:00,
2013-01-02 01:09:00,37.5,28.7,30.24,NNW,338,0.0,0.0,70,0.00,,,0.00,WUHU216HW,2013-01-02 07:09:00,
2013-01-02 01:14:00,37.5,28.7,30.25,North,0,0.0,4.6,70,0.00,,,0.00,WUHU216HW,2013-01-02 07:14:00,
2013-01-02 01:19:00,37.5,28.7,30.24,NNE,23,0.0,4.6,70,0.00,,,0.00,WUHU216HW,2013-01-02 07:19:00,
2013-01-02 01:24:00,37.2,28.4,30.24,North,0,0.0,0.0,70,0.00,,,0.00,WUHU216HW,2013-01-02 07:24:00,
2013-01-02 01:29:00,37.2,28.4,30.24,NNW,338,0.0,0.0,70,0.00,,,0.00,WUHU216HW,2013-01-02 07:29:00,
2013-01-02 01:34:00,37.2,28.7,30.24,North,0,0.0,0.0,71,0.00,,,0.00,WUHU216HW,2013-01-02 07:34:00,
2013-01-02 01:39:00,37.2,28.4,30.25,WNW,293,0.0,0.0,70,0.00,,,0.00,WUHU216HW,2013-01-02 07:39:00,
2013-01-02 01:45:00,37.2,28.4,30.24,NNE,23,6.4,6.4,70,0.00,,,0.00,WUHU216HW,2013-01-02 07:45:00,
2013-01-02 01:50:00,37.0,28.2,30.24,NW,315,0.0,6.4,70,0.00,,,0.00,WUHU216HW,2013-01-02 07:50:00,
2013-01-02 01:55:00,36.8,28.3,30.24,NNW,338,0.0,6.4,71,0.00,,,0.00,WUHU216HW,2013-01-02 07:55:00,
2013-01-02 02:00:00,37.0,28.5,30.24,North,0,4.0,4.0,71,0.00,,,0.00,WUHU216HW,2013-01-02 08:00:00,
2013-01-02 02:09:00,37.0,28.5,30.25,North,0,4.0,4.0,71,0.00,,,0.00,WUHU216HW,2013-01-02 08:09:00,
2013-01-02 02:14:00,37.0,28.5,30.25,NNE,23,0.0,4.0,71,0.00,,,0.00,WUHU216HW,2013-01-02 08:14:00,
2013-01-02 02:19:00,37.2,28.7,30.25,NNE,23,0.0,4.0,71,0.00,,,0.00,WUHU216HW,2013-01-02 08:19:00,
2013-01-02 02:24:00,37.2,28.7,30.25,NNE,23,0.0,0.0,71,0.00,,,0.00,WUHU216HW,2013-01-02 08:24:00,
2013-01-02 02:29:00,37.0,28.5,30.25,NW,315,0.0,0.0,71,0.00,,,0.00,WUHU216HW,2013-01-02 08:29:00,
2013-01-02 02:34:00,37.0,28.8,30.25,NNW,338,0.0,0.0,72,0.00,,,0.00,WUHU216HW,2013-01-02 08:34:00,
2013-01-02 02:39:00,37.0,28.8,30.25,NNE,23,0.0,0.0,72,0.00,,,0.00,WUHU216HW,2013-01-02 08:39:00,
2013-01-02 02:44:00,37.0,28.8,30.25,NNE,23,0.0,6.7,72,0.00,,,0.00,WUHU216HW,2013-01-02 08:44:00,
2013-01-02 02:49:00,36.6,28.5,30.25,WNW,293,0.0,6.7,72,0.00,,,0.00,WUHU216HW,2013-01-02 08:49:00,
2013-01-02 02:54:00,36.5,28.3,30.25,NNE,23,0.0,0.0,72,0.00,,,0.00,WUHU216HW,2013-01-02 08:54:00,
2013-01-02 03:00:00,36.6,28.5,30.25,North,0,0.0,0.0,72,0.00,,,0.00,WUHU216HW,2013-01-02 09:00:00,
2013-01-02 03:09:00,36.6,28.5,30.25,North,0,0.0,0.0,72,0.00,,,0.00,WUHU216HW,2013-01-02 09:09:00,
2013-01-02 03:14:00,36.6,28.5,30.25,North,0,0.0,0.0,72,0.00,,,0.00,WUHU216HW,2013-01-02 09:14:00,
2013-01-02 03:19:00,36.6,28.5,30.25,North,0,0.0,0.0,72,0.00,,,0.00,WUHU216HW,2013-01-02 09:19:00,
2013-01-02 03:24:00,36.6,28.5,30.25,North,0,0.0,0.0,72,0.00,,,0.00,WUHU216HW,2013-01-02 09:24:00,
2013-01-02 03:29:00,36.5,28.3,30.25,NNE,23,0.0,0.0,72,0.00,,,0.00,WUHU216HW,2013-01-02 09:29:00,
2013-01-02 03:34:00,36.5,28.3,30.25,NNW,338,0.0,0.0,72,0.00,,,0.00,WUHU216HW,2013-01-02 09:34:00,
2013-01-02 03:40:00,36.5,28.3,30.25,North,0,0.0,0.0,72,0.00,,,0.00,WUHU216HW,2013-01-02 09:40:00,
2013-01-02 03:45:00,36.5,28.3,30.25,North,0,0.0,0.0,72,0.00,,,0.00,WUHU216HW,2013-01-02 09:45:00,
2013-01-02 03:50:00,36.3,28.1,30.26,North,0,0.0,0.0,72,0.00,,,0.00,WUHU216HW,2013-01-02 09:50:00,
2013-01-02 03:55:00,36.1,27.9,30.25,North,0,0.0,0.0,72,0.00,,,0.00,WUHU216HW,2013-01-02 09:55:00,
2013-01-02 04:00:00,36.1,28.2,30.25,North,0,0.0,0.0,73,0.00,,,0.00,WUHU216HW,2013-01-02 10:00:00,
2013-01-02 04:09:00,36.1,28.2,30.25,North,0,0.0,0.0,73,0.00,,,0.00,WUHU216HW,2013-01-02 10:09:00,
2013-01-02 04:14:00,36.3,28.4,30.25,North,0,0.0,0.0,73,0.00,,,0.00,WUHU216HW,2013-01-02 10:14:00,
2013-01-02 04:19:00,35.9,28.1,30.25,North,0,0.0,0.0,73,0.00,,,0.00,WUHU216HW,2013-01-02 10:19:00,
2013-01-02 04:24:00,36.1,28.2,30.25,North,0,0.0,0.0,73,0.00,,,0.00,WUHU216HW,2013-01-02 10:24:00,
2013-01-02 04:29:00,36.1,28.2,30.25,North,0,0.0,0.0,73,0.00,,,0.00,WUHU216HW,2013-01-02 10:29:00,
2013-01-02 04:34:00,35.9,28.1,30.25,NNW,338,0.0,0.0,73,0.00,,,0.00,WUHU216HW,2013-01-02 10:34:00,
2013-01-02 04:40:00,35.9,28.1,30.25,NNE,23,0.0,0.0,73,0.00,,,0.00,WUHU216HW,2013-01-02 10:40:00,
2013-01-02 04:45:00,35.9,28.1,30.24,NNE,23,0.0,0.0,73,0.00,,,0.00,WUHU216HW,2013-01-02 10:45:00,
2013-01-02 04:50:00,35.9,28.1,30.25,NNE,23,0.0,0.0,73,0.00,,,0.00,WUHU216HW,2013-01-02 10:50:00,
2013-01-02 04:55:00,42.4,36.0,30.25,NNE,23,0.0,0.0,78,0.00,,,0.00,WUHU216HW,2013-01-02 10:55:00,
2013-01-02 05:00:00,40.6,32.2,30.25,NNE,23,0.0,0.0,72,0.00,,,0.00,WUHU216HW,2013-01-02 11:00:00,
2013-01-02 05:09:00,40.6,32.2,30.25,NNE,23,0.0,0.0,72,0.00,,,0.00,WUHU216HW,2013-01-02 11:09:00,
2013-01-02 05:14:00,36.6,28.1,30.25,NNE,23,0.0,0.0,71,0.00,,,0.00,WUHU216HW,2013-01-02 11:14:00,
2013-01-02 05:19:00,36.5,28.3,30.25,North,0,0.0,0.0,72,0.00,,,0.00,WUHU216HW,2013-01-02 11:19:00,
2013-01-02 05:24:00,36.3,28.1,30.25,North,0,0.0,0.0,72,0.00,,,0.00,WUHU216HW,2013-01-02 11:24:00,
2013-01-02 05:29:00,36.1,27.9,30.24,North,0,0.0,0.0,72,0.00,,,0.00,WUHU216HW,2013-01-02 11:29:00,
2013-01-02 05:34:00,35.9,28.1,30.25,North,0,0.0,0.0,73,0.00,,,0.00,WUHU216HW,2013-01-02 11:34:00,
2013-01-02 05:40:00,35.7,27.9,30.24,North,0,0.0,0.0,73,0.00,,,0.00,WUHU216HW,2013-01-02 11:40:00,
2013-01-02 05:45:00,35.7,27.9,30.25,North,0,4.6,4.6,73,0.00,,,0.00,WUHU216HW,2013-01-02 11:45:00,
2013-01-02 05:50:00,35.7,27.9,30.24,North,0,0.0,4.6,73,0.00,,,0.00,WUHU216HW,2013-01-02 11:50:00,
2013-01-02 05:55:00,35.7,27.9,30.24,North,0,0.0,5.1,73,0.00,,,0.00,WUHU216HW,2013-01-02 11:55:00,
2013-01-02 06:00:00,35.7,27.9,30.24,North,0,0.0,5.1,73,0.00,,,0.00,WUHU216HW,2013-01-02 12:00:00,
2013-01-02 06:14:00,35.7,27.9,30.24,North,0,0.0,0.0,73,0.00,,,0.00,WUHU216HW,2013-01-02 12:14:00,
2013-01-02 06:19:00,35.4,27.8,30.25,North,0,0.0,0.0,74,0.00,,,0.00,WUHU216HW,2013-01-02 12:19:00,
2013-01-02 06:24:00,35.2,27.7,30.25,North,0,0.0,4.9,74,0.00,,,0.00,WUHU216HW,2013-01-02 12:24:00,
2013-01-02 06:29:00,35.4,27.8,30.25,North,0,0.0,4.9,74,0.00,,,0.00,WUHU216HW,2013-01-02 12:29:00,
2013-01-02 06:34:00,35.4,27.8,30.25,North,0,0.0,0.0,74,0.00,,,0.00,WUHU216HW,2013-01-02 12:34:00,
2013-01-02 06:39:00,35.0,27.2,30.25,NW,315,0.0,0.0,73,0.00,,,0.00,WUHU216HW,2013-01-02 12:39:00,
2013-01-02 06:44:00,35.2,27.7,30.25,NNW,338,0.0,0.0,74,0.00,,,0.00,WUHU216HW,2013-01-02 12:44:00,
2013-01-02 06:49:00,35.2,27.7,30.25,NW,315,0.0,0.0,74,0.00,,,0.00,WUHU216HW,2013-01-02 12:49:00,
2013-01-02 06:54:00,35.2,27.7,30.25,NW,315,0.0,0.0,74,0.00,,,0.00,WUHU216HW,2013-01-02 12:54:00,
2013-01-02 06:59:00,34.8,27.3,30.25,North,0,0.0,0.0,74,0.00,,,0.00,WUHU216HW,2013-01-02 12:59:00,
2013-01-02 07:04:00,35.0,27.3,30.26,North,0,0.0,0.0,74,0.00,,,0.00,WUHU216HW,2013-01-02 13:04:00,
2013-01-02 07:10:00,34.8,27.3,30.26,North,0,0.0,0.0,74,0.00,,,0.00,WUHU216HW,2013-01-02 13:10:00,
2013-01-02 07:15:00,34.8,27.6,30.27,North,0,0.0,0.0,75,0.00,,,0.00,WUHU216HW,2013-01-02 13:15:00,
2013-01-02 07:20:00,34.8,27.6,30.26,North,0,0.0,0.0,75,0.00,,,0.00,WUHU216HW,2013-01-02 13:20:00,
2013-01-02 07:25:00,34.8,27.6,30.27,North,0,0.0,0.0,75,0.00,,,0.00,WUHU216HW,2013-01-02 13:25:00,
2013-01-02 07:30:00,34.8,27.6,30.27,NW,315,0.0,0.0,75,0.00,,,0.00,WUHU216HW,2013-01-02 13:30:00,
2013-01-02 07:35:00,34.8,27.6,30.28,North,0,0.0,0.0,75,0.00,,,0.00,WUHU216HW,2013-01-02 13:35:00,
2013-01-02 07:40:00,34.8,27.6,30.27,North,0,6.0,6.0,75,0.00,,,0.00,WUHU216HW,2013-01-02 13:40:00,
2013-01-02 07:45:00,34.8,27.6,30.27,North,0,0.0,6.0,75,0.00,,,0.00,WUHU216HW,2013-01-02 13:45:00,
2013-01-02 07:50:00,34.8,27.6,30.27,NNW,338,0.0,0.0,75,0.00,,,0.00,WUHU216HW,2013-01-02 13:50:00,
2013-01-02 07:55:00,34.8,27.6,30.28,WNW,293,0.0,0.0,75,0.00,,,0.00,WUHU216HW,2013-01-02 13:55:00,
2013-01-02 08:00:00,35.0,27.8,30.28,NNW,338,0.0,0.0,75,0.00,,,0.00,WUHU216HW,2013-01-02 14:00:00,
2013-01-02 08:05:00,35.2,28.0,30.27,North,0,0.0,0.0,75,0.00,,,0.00,WUHU216HW,2013-01-02 14:05:00,
2013-01-02 08:10:00,35.2,28.0,30.28,North,0,0.0,0.0,75,0.00,,,0.00,WUHU216HW,2013-01-02 14:10:00,
2013-01-02 08:15:00,34.7,27.1,30.27,NNW,338,0.0,3.1,74,0.00,,,0.00,WUHU216HW,2013-01-02 14:15:00,
2013-01-02 08:21:00,34.7,27.5,30.28,NW,315,0.0,3.1,75,0.00,,,0.00,WUHU216HW,2013-01-02 14:21:00,
2013-01-02 08:26:00,34.8,27.6,30.28,North,0,0.0,0.0,75,0.00,,,0.00,WUHU216HW,2013-01-02 14:26:00,
2013-01-02 08:31:00,35.0,27.8,30.29,WNW,293,0.0,6.2,75,0.00,,,0.00,WUHU216HW,2013-01-02 14:31:00,
2013-01-02 08:36:00,35.2,28.0,30.28,North,0,0.0,6.2,75,0.00,,,0.00,WUHU216HW,2013-01-02 14:36:00,
2013-01-02 08:41:00,35.2,28.0,30.29,North,0,0.0,0.0,75,0.00,,,0.00,WUHU216HW,2013-01-02 14:41:00,
2013-01-02 08:46:00,34.8,27.6,30.29,WNW,293,0.0,0.0,75,0.00,,,0.00,WUHU216HW,2013-01-02 14:46:00,
2013-01-02 08:51:00,34.7,27.5,30.29,WNW,293,0.0,0.0,75,0.00,,,0.00,WUHU216HW,2013-01-02 14:51:00,
2013-01-02 08:56:00,34.8,27.6,30.29,WNW,293,0.0,0.0,75,0.00,,,0.00,WUHU216HW,2013-01-02 14:56:00,
2013-01-02 09:01:00,35.2,28.0,30.29,North,0,0.0,0.0,75,0.00,,,0.00,WUHU216HW,2013-01-02 15:01:00,
2013-01-02 09:06:00,35.2,28.0,30.29,North,0,0.0,0.0,75,0.00,,,0.00,WUHU216HW,2013-01-02 15:06:00,
2013-01-02 09:11:00,35.4,28.2,30.30,North,0,0.0,0.0,75,0.00,,,0.00,WUHU216HW,2013-01-02 15:11:00,
2013-01-02 09:16:00,35.4,28.2,30.30,West,270,0.0,0.0,75,0.00,,,0.00,WUHU216HW,2013-01-02 15:16:00,
2013-01-02 09:21:00,35.4,28.2,30.29,North,0,0.0,0.0,75,0.00,,,0.00,WUHU216HW,2013-01-02 15:21:00,
2013-01-02 09:26:00,35.4,28.2,30.30,NW,315,0.0,3.8,75,0.00,,,0.00,WUHU216HW,2013-01-02 15:26:00,
2013-01-02 09:32:00,35.7,28.5,30.29,North,0,0.0,3.8,75,0.00,,,0.00,WUHU216HW,2013-01-02 15:32:00,
2013-01-02 09:37:00,35.9,28.4,30.30,NNW,338,0.0,0.0,74,0.00,,,0.00,WUHU216HW,2013-01-02 15:37:00,
2013-01-02 09:42:00,36.1,28.6,30.30,NNE,23,4.4,4.4,74,0.00,,,0.00,WUHU216HW,2013-01-02 15:42:00,
2013-01-02 09:47:00,36.3,28.7,30.30,North,0,0.0,4.4,74,0.00,,,0.00,WUHU216HW,2013-01-02 15:47:00,
2013-01-02 09:52:00,36.5,28.9,30.30,North,0,0.0,4.4,74,0.00,,,0.00,WUHU216HW,2013-01-02 15:52:00,
2013-01-02 09:57:00,36.6,28.8,30.30,North,0,0.0,0.0,73,0.00,,,0.00,WUHU216HW,2013-01-02 15:57:00,
2013-01-02 10:02:00,36.8,29.0,30.31,NNW,338,0.0,0.0,73,0.00,,,0.00,WUHU216HW,2013-01-02 16:02:00,
2013-01-02 10:07:00,37.2,29.3,30.30,North,0,0.0,2.6,73,0.00,,,0.00,WUHU216HW,2013-01-02 16:07:00,
2013-01-02 10:12:00,37.4,29.5,30.30,North,0,0.0,2.6,73,0.00,,,0.00,WUHU216HW,2013-01-02 16:12:00,
2013-01-02 10:17:00,37.5,29.3,30.30,North,0,0.0,0.0,72,0.00,,,0.00,WUHU216HW,2013-01-02 16:17:00,
2013-01-02 10:22:00,37.9,29.7,30.30,NNE,23,0.0,0.0,72,0.00,,,0.00,WUHU216HW,2013-01-02 16:22:00,
2013-01-02 10:27:00,37.9,29.3,30.31,WNW,293,5.3,5.3,71,0.00,,,0.00,WUHU216HW,2013-01-02 16:27:00,
2013-01-02 10:32:00,37.4,28.9,30.31,NNW,338,0.0,5.3,71,0.00,,,0.00,WUHU216HW,2013-01-02 16:32:00,
2013-01-02 10:38:00,37.5,29.0,30.31,North,0,0.0,0.0,71,0.00,,,0.00,WUHU216HW,2013-01-02 16:38:00,
2013-01-02 10:43:00,37.9,29.3,30.31,North,0,0.0,0.0,71,0.00,,,0.00,WUHU216HW,2013-01-02 16:43:00,
2013-01-02 10:48:00,37.9,29.3,30.31,NNE,23,0.0,0.0,71,0.00,,,0.00,WUHU216HW,2013-01-02 16:48:00,
2013-01-02 10:53:00,38.3,29.3,30.31,North,0,0.0,0.0,70,0.00,,,0.00,WUHU216HW,2013-01-02 16:53:00,
2013-01-02 10:58:00,37.9,28.6,30.31,North,0,0.0,0.0,69,0.00,,,0.00,WUHU216HW,2013-01-02 16:58:00,
2013-01-02 11:03:00,38.4,29.1,30.31,West,270,0.0,0.0,69,0.00,,,0.00,WUHU216HW,2013-01-02 17:03:00,
2013-01-02 11:08:00,38.1,28.8,30.31,NNW,338,0.0,0.0,69,0.00,,,0.00,WUHU216HW,2013-01-02 17:08:00,
2013-01-02 11:13:00,38.4,29.1,30.31,West,270,0.0,3.8,69,0.00,,,0.00,WUHU216HW,2013-01-02 17:13:00,
2013-01-02 11:18:00,38.3,28.6,30.30,WNW,293,0.0,7.6,68,0.00,,,0.00,WUHU216HW,2013-01-02 17:18:00,
2013-01-02 11:23:00,38.3,28.6,30.30,WNW,293,0.0,7.6,68,0.00,,,0.00,WUHU216HW,2013-01-02 17:23:00,
2013-01-02 11:28:00,38.4,28.7,30.29,NW,315,0.0,0.0,68,0.00,,,0.00,WUHU216HW,2013-01-02 17:28:00,
2013-01-02 11:34:00,38.4,28.7,30.30,NNW,338,0.0,0.0,68,0.00,,,0.00,WUHU216HW,2013-01-02 17:34:00,
2013-01-02 11:39:00,38.8,28.7,30.29,NW,315,0.0,0.0,67,0.00,,,0.00,WUHU216HW,2013-01-02 17:39:00,
2013-01-02 11:44:00,38.8,28.3,30.29,West,270,0.0,1.7,66,0.00,,,0.00,WUHU216HW,2013-01-02 17:44:00,
2013-01-02 11:49:00,38.8,29.1,30.29,NNW,338,0.0,1.7,68,0.00,,,0.00,WUHU216HW,2013-01-02 17:49:00,
2013-01-02 11:54:00,39.2,29.0,30.29,NNW,338,0.0,0.0,67,0.00,,,0.00,WUHU216HW,2013-01-02 17:54:00,
2013-01-02 11:59:00,39.3,29.2,30.28,NW,315,0.0,0.0,67,0.00,,,0.00,WUHU216HW,2013-01-02 17:59:00,
2013-01-02 12:04:00,39.5,29.4,30.28,West,270,0.0,0.0,67,0.00,,,0.00,WUHU216HW,2013-01-02 18:04:00,
2013-01-02 12:09:00,39.3,28.8,30.28,WNW,293,0.0,0.0,66,0.00,,,0.00,WUHU216HW,2013-01-02 18:09:00,
2013-01-02 12:14:00,39.5,29.0,30.27,NNW,338,0.0,0.0,66,0.00,,,0.00,WUHU216HW,2013-01-02 18:14:00,
2013-01-02 12:19:00,39.9,29.4,30.27,West,270,0.0,0.0,66,0.00,,,0.00,WUHU216HW,2013-01-02 18:19:00,
2013-01-02 12:25:00,39.9,29.0,30.27,West,270,0.0,0.0,65,0.00,,,0.00,WUHU216HW,2013-01-02 18:25:00,
2013-01-02 12:30:00,39.9,29.4,30.26,NW,315,0.0,0.0,66,0.00,,,0.00,WUHU216HW,2013-01-02 18:30:00,
2013-01-02 12:35:00,39.9,29.4,30.26,WNW,293,0.0,0.0,66,0.00,,,0.00,WUHU216HW,2013-01-02 18:35:00,
2013-01-02 12:40:00,40.2,29.7,30.26,NNE,23,0.0,0.0,66,0.00,,,0.00,WUHU216HW,2013-01-02 18:40:00,
2013-01-02 12:45:00,40.8,29.9,30.25,WNW,293,0.0,0.0,65,0.00,,,0.00,WUHU216HW,2013-01-02 18:45:00,
2013-01-02 12:50:00,40.8,29.5,30.26,NW,315,0.0,0.0,64,0.00,,,0.00,WUHU216HW,2013-01-02 18:50:00,
2013-01-02 12:55:00,40.6,29.3,30.25,WNW,293,0.0,7.8,64,0.00,,,0.00,WUHU216HW,2013-01-02 18:55:00,
2013-01-02 13:00:00,40.2,29.0,30.25,NNW,338,0.0,7.8,64,0.00,,,0.00,WUHU216HW,2013-01-02 19:00:00,
2013-01-02 13:05:00,40.6,29.7,30.25,West,270,0.0,0.0,65,0.00,,,0.00,WUHU216HW,2013-01-02 19:05:00,
2013-01-02 13:10:00,40.8,29.9,30.25,WNW,293,3.5,3.5,65,0.00,,,0.00,WUHU216HW,2013-01-02 19:10:00,
2013-01-02 13:15:00,40.8,29.5,30.25,NW,315,0.0,3.5,64,0.00,,,0.00,WUHU216HW,2013-01-02 19:15:00,
2013-01-02 13:21:00,40.8,29.5,30.24,West,270,0.0,0.0,64,0.00,,,0.00,WUHU216HW,2013-01-02 19:21:00,
2013-01-02 13:26:00,40.6,29.3,30.24,West,270,2.2,2.2,64,0.00,,,0.00,WUHU216HW,2013-01-02 19:26:00,
2013-01-02 13:31:00,41.1,29.8,30.24,North,0,0.0,6.0,64,0.00,,,0.00,WUHU216HW,2013-01-02 19:31:00,
2013-01-02 13:36:00,41.1,29.8,30.23,North,0,0.0,6.0,64,0.00,,,0.00,WUHU216HW,2013-01-02 19:36:00,
2013-01-02 13:41:00,41.5,30.2,30.23,NE,45,0.0,0.0,64,0.00,,,0.00,WUHU216HW,2013-01-02 19:41:00,
2013-01-02 13:46:00,41.9,30.1,30.23,North,0,0.0,3.3,63,0.00,,,0.00,WUHU216HW,2013-01-02 19:46:00,
2013-01-02 13:51:00,41.7,29.6,30.23,NW,315,0.0,3.3,62,0.00,,,0.00,WUHU216HW,2013-01-02 19:51:00,
2013-01-02 13:56:00,41.7,30.0,30.24,NNW,338,7.6,7.6,63,0.00,,,0.00,WUHU216HW,2013-01-02 19:56:00,
2013-01-02 14:01:00,41.9,30.1,30.23,NW,315,0.0,7.6,63,0.00,,,0.00,WUHU216HW,2013-01-02 20:01:00,
2013-01-02 14:06:00,41.3,29.3,30.23,WNW,293,0.0,7.6,62,0.00,,,0.00,WUHU216HW,2013-01-02 20:06:00,
2013-01-02 14:11:00,41.1,29.1,30.23,WSW,248,0.0,0.0,62,0.00,,,0.00,WUHU216HW,2013-01-02 20:11:00,
2013-01-02 14:17:00,41.5,29.8,30.23,NNW,338,0.0,0.0,63,0.00,,,0.00,WUHU216HW,2013-01-02 20:17:00,
2013-01-02 14:22:00,41.0,29.3,30.23,West,270,1.1,2.9,63,0.00,,,0.00,WUHU216HW,2013-01-02 20:22:00,
2013-01-02 14:27:00,41.1,29.1,30.23,NW,315,0.0,3.3,62,0.00,,,0.00,WUHU216HW,2013-01-02 20:27:00,
2013-01-02 14:32:00,41.3,29.6,30.22,West,270,0.0,6.0,63,0.00,,,0.00,WUHU216HW,2013-01-02 20:32:00,
2013-01-02 14:37:00,41.7,30.0,30.23,NNW,338,0.0,6.9,63,0.00,,,0.00,WUHU216HW,2013-01-02 20:37:00,
2013-01-02 14:42:00,41.9,29.8,30.22,West,270,0.0,6.9,62,0.00,,,0.00,WUHU216HW,2013-01-02 20:42:00,
2013-01-02 14:47:00,41.7,29.6,30.22,WNW,293,0.0,0.0,62,0.00,,,0.00,WUHU216HW,2013-01-02 20:47:00,
2013-01-02 14:52:00,41.9,29.8,30.23,West,270,0.0,0.0,62,0.00,,,0.00,WUHU216HW,2013-01-02 20:52:00,
2013-01-02 14:57:00,41.9,29.8,30.22,NNE,23,0.0,4.9,62,0.00,,,0.00,WUHU216HW,2013-01-02 20:57:00,
2013-01-02 15:03:00,42.0,29.9,30.22,NW,315,0.0,4.9,62,0.00,,,0.00,WUHU216HW,2013-01-02 21:03:00,
2013-01-02 15:08:00,42.4,30.2,30.22,NNW,338,0.0,0.0,62,0.00,,,0.00,WUHU216HW,2013-01-02 21:08:00,
2013-01-02 15:13:00,42.4,30.2,30.22,North,0,0.0,0.0,62,0.00,,,0.00,WUHU216HW,2013-01-02 21:13:00,
2013-01-02 15:18:00,42.0,29.9,30.22,NW,315,2.0,2.0,62,0.00,,,0.00,WUHU216HW,2013-01-02 21:18:00,
2013-01-02 15:23:00,42.0,29.9,30.21,NNW,338,0.0,2.0,62,0.00,,,0.00,WUHU216HW,2013-01-02 21:23:00,
2013-01-02 15:28:00,42.0,29.5,30.21,WNW,293,0.0,0.0,61,0.00,,,0.00,WUHU216HW,2013-01-02 21:28:00,
2013-01-02 15:33:00,42.0,29.5,30.22,NNW,338,0.0,0.0,61,0.00,,,0.00,WUHU216HW,2013-01-02 21:33:00,
2013-01-02 15:38:00,42.0,29.5,30.22,NW,315,0.0,0.0,61,0.00,,,0.00,WUHU216HW,2013-01-02 21:38:00,
2013-01-02 15:43:00,42.4,30.2,30.22,North,0,0.0,0.0,62,0.00,,,0.00,WUHU216HW,2013-01-02 21:43:00,
2013-01-02 15:48:00,42.4,30.2,30.22,North,0,0.0,0.0,62,0.00,,,0.00,WUHU216HW,2013-01-02 21:48:00,
2013-01-02 15:53:00,42.6,30.0,30.22,WNW,293,0.0,0.0,61,0.00,,,0.00,WUHU216HW,2013-01-02 21:53:00,
2013-01-02 15:59:00,42.6,30.0,30.22,WNW,293,0.0,0.0,61,0.00,,,0.00,WUHU216HW,2013-01-02 21:59:00,
2013-01-02 16:04:00,42.6,30.0,30.22,North,0,0.0,0.0,61,0.00,,,0.00,WUHU216HW,2013-01-02 22:04:00,
2013-01-02 16:09:00,42.6,30.0,30.21,North,0,0.0,1.3,61,0.00,,,0.00,WUHU216HW,2013-01-02 22:09:00,
2013-01-02 16:14:00,42.6,30.0,30.22,North,0,0.0,1.3,61,0.00,,,0.00,WUHU216HW,2013-01-02 22:14:00,
2013-01-02 16:19:00,42.9,30.3,30.22,NNE,23,0.0,0.0,61,0.00,,,0.00,WUHU216HW,2013-01-02 22:19:00,
2013-01-02 16:24:00,43.1,30.5,30.22,NNE,23,0.0,0.0,61,0.00,,,0.00,WUHU216HW,2013-01-02 22:24:00,
2013-01-02 16:29:00,43.1,30.2,30.21,WNW,293,0.0,0.0,60,0.00,,,0.00,WUHU216HW,2013-01-02 22:29:00,
2013-01-02 16:34:00,43.3,29.9,30.21,West,270,0.0,0.0,59,0.00,,,0.00,WUHU216HW,2013-01-02 22:34:00,
2013-01-02 16:39:00,43.3,29.9,30.21,West,270,0.0,0.0,59,0.00,,,0.00,WUHU216HW,2013-01-02 22:39:00,
2013-01-02 16:44:00,43.1,29.7,30.22,West,270,0.0,0.0,59,0.00,,,0.00,WUHU216HW,2013-01-02 22:44:00,
2013-01-02 16:49:00,42.9,29.5,30.22,NW,315,0.0,0.0,59,0.00,,,0.00,WUHU216HW,2013-01-02 22:49:00,
2013-01-02 16:54:00,42.6,29.2,30.22,NW,315,0.0,0.0,59,0.00,,,0.00,WUHU216HW,2013-01-02 22:54:00,
2013-01-02 16:59:00,42.4,29.0,30.22,WNW,293,0.0,0.0,59,0.00,,,0.00,WUHU216HW,2013-01-02 22:59:00,
2013-01-02 17:04:00,41.9,29.0,30.21,NW,315,0.0,0.0,60,0.00,,,0.00,WUHU216HW,2013-01-02 23:04:00,
2013-01-02 17:09:00,41.9,29.0,30.22,NW,315,0.0,0.0,60,0.00,,,0.00,WUHU216HW,2013-01-02 23:09:00,
2013-01-02 17:14:00,41.7,28.8,30.21,NW,315,0.0,0.0,60,0.00,,,0.00,WUHU216HW,2013-01-02 23:14:00,
2013-01-02 17:19:00,41.5,28.7,30.22,NW,315,0.0,0.0,60,0.00,,,0.00,WUHU216HW,2013-01-02 23:19:00,
2013-01-02 17:24:00,41.5,29.0,30.22,NW,315,0.0,0.0,61,0.00,,,0.00,WUHU216HW,2013-01-02 23:24:00,
2013-01-02 17:29:00,41.3,28.9,30.22,NW,315,0.0,0.0,61,0.00,,,0.00,WUHU216HW,2013-01-02 23:29:00,
2013-01-02 17:34:00,41.3,28.9,30.22,NW,315,0.0,0.0,61,0.00,,,0.00,WUHU216HW,2013-01-02 23:34:00,
2013-01-02 17:39:00,41.1,28.7,30.23,NW,315,0.0,0.0,61,0.00,,,0.00,WUHU216HW,2013-01-02 23:39:00,
2013-01-02 17:44:00,41.0,28.5,30.22,WNW,293,0.0,0.0,61,0.00,,,0.00,WUHU216HW,2013-01-02 23:44:00,
2013-01-02 17:49:00,40.8,28.4,30.22,WNW,293,0.0,0.0,61,0.00,,,0.00,WUHU216HW,2013-01-02 23:49:00,
2013-01-02 17:54:00,40.8,28.4,30.22,WNW,293,0.0,0.0,61,0.00,,,0.00,WUHU216HW,2013-01-02 23:54:00,
2013-01-02 18:00:00,40.8,28.4,30.22,WNW,293,0.0,0.0,61,0.00,,,0.00,WUHU216HW,2013-01-03 00:00:00,
2013-01-02 18:05:00,40.8,28.7,30.23,WNW,293,0.0,0.0,62,0.00,,,0.00,WUHU216HW,2013-01-03 00:05:00,
2013-01-02 18:10:00,40.8,28.7,30.23,WNW,293,0.0,0.0,62,0.00,,,0.00,WUHU216HW,2013-01-03 00:10:00,
2013-01-02 18:15:00,40.8,28.7,30.23,WNW,293,0.0,0.0,62,0.00,,,0.00,WUHU216HW,2013-01-03 00:15:00,
2013-01-02 18:20:00,40.4,28.4,30.23,WNW,293,0.0,0.0,62,0.00,,,0.00,WUHU216HW,2013-01-03 00:20:00,
2013-01-02 18:25:00,40.2,28.6,30.23,WNW,293,0.0,0.0,63,0.00,,,0.00,WUHU216HW,2013-01-03 00:25:00,
2013-01-02 18:30:00,40.2,28.6,30.23,WNW,293,0.0,0.0,63,0.00,,,0.00,WUHU216HW,2013-01-03 00:30:00,
2013-01-02 18:35:00,40.2,28.6,30.23,WNW,293,0.0,0.0,63,0.00,,,0.00,WUHU216HW,2013-01-03 00:35:00,
2013-01-02 18:40:00,40.1,28.8,30.23,WNW,293,0.0,0.0,64,0.00,,,0.00,WUHU216HW,2013-01-03 00:40:00,
2013-01-02 18:45:00,40.1,28.8,30.24,WNW,293,0.0,0.0,64,0.00,,,0.00,WUHU216HW,2013-01-03 00:45:00,
2013-01-02 18:50:00,40.1,28.8,30.24,WNW,293,0.0,0.0,64,0.00,,,0.00,WUHU216HW,2013-01-03 00:50:00,
2013-01-02 18:55:00,39.9,28.6,30.24,WNW,293,0.0,0.0,64,0.00,,,0.00,WUHU216HW,2013-01-03 00:55:00,
2013-01-02 19:01:00,39.9,28.6,30.25,WNW,293,0.0,0.0,64,0.00,,,0.00,WUHU216HW,2013-01-03 01:01:00,
2013-01-02 19:05:00,39.9,28.6,30.25,WNW,293,0.0,0.0,64,0.00,,,0.00,WUHU216HW,2013-01-03 01:05:00,
2013-01-02 19:11:00,39.9,28.6,30.25,WNW,293,0.0,0.0,64,0.00,,,0.00,WUHU216HW,2013-01-03 01:11:00,
2013-01-02 19:16:00,39.7,28.4,30.25,WNW,293,0.0,0.0,64,0.00,,,0.00,WUHU216HW,2013-01-03 01:16:00,
2013-01-02 19:21:00,39.7,28.4,30.25,WNW,293,0.0,0.0,64,0.00,,,0.00,WUHU216HW,2013-01-03 01:21:00,
2013-01-02 19:26:00,39.5,28.2,30.26,WNW,293,0.0,0.0,64,0.00,,,0.00,WUHU216HW,2013-01-03 01:26:00,
2013-01-02 19:31:00,39.5,28.6,30.26,WNW,293,0.0,0.0,65,0.00,,,0.00,WUHU216HW,2013-01-03 01:31:00,
2013-01-02 19:36:00,39.5,28.6,30.26,WNW,293,0.0,0.0,65,0.00,,,0.00,WUHU216HW,2013-01-03 01:36:00,
2013-01-02 19:41:00,39.3,28.4,30.26,WNW,293,0.0,0.0,65,0.00,,,0.00,WUHU216HW,2013-01-03 01:41:00,
2013-01-02 19:46:00,39.3,28.4,30.26,WNW,293,0.0,0.0,65,0.00,,,0.00,WUHU216HW,2013-01-03 01:46:00,
2013-01-02 19:51:00,39.3,28.4,30.26,WNW,293,0.0,0.0,65,0.00,,,0.00,WUHU216HW,2013-01-03 01:51:00,
2013-01-02 19:56:00,39.3,28.4,30.26,WNW,293,0.0,0.0,65,0.00,,,0.00,WUHU216HW,2013-01-03 01:56:00,
2013-01-02 20:01:00,39.2,28.3,30.27,WNW,293,0.0,0.0,65,0.00,,,0.00,WUHU216HW,2013-01-03 02:01:00,
2013-01-02 20:06:00,39.0,28.1,30.26,WNW,293,0.0,0.0,65,0.00,,,0.00,WUHU216HW,2013-01-03 02:06:00,
2013-01-02 20:11:00,38.8,28.3,30.27,WNW,293,0.0,0.0,66,0.00,,,0.00,WUHU216HW,2013-01-03 02:11:00,
2013-01-02 20:16:00,38.8,28.3,30.27,WNW,293,0.0,0.0,66,0.00,,,0.00,WUHU216HW,2013-01-03 02:16:00,
2013-01-02 20:21:00,38.8,28.3,30.27,WNW,293,0.0,0.0,66,0.00,,,0.00,WUHU216HW,2013-01-03 02:21:00,
2013-01-02 20:26:00,38.4,28.0,30.27,WNW,293,0.0,0.0,66,0.00,,,0.00,WUHU216HW,2013-01-03 02:26:00,
2013-01-02 20:31:00,38.4,28.0,30.27,WNW,293,0.0,0.0,66,0.00,,,0.00,WUHU216HW,2013-01-03 02:31:00,
2013-01-02 20:36:00,38.4,28.0,30.27,WNW,293,0.0,0.0,66,0.00,,,0.00,WUHU216HW,2013-01-03 02:36:00,
2013-01-02 20:41:00,38.4,28.0,30.27,WNW,293,0.0,0.0,66,0.00,,,0.00,WUHU216HW,2013-01-03 02:41:00,
2013-01-02 20:46:00,38.3,27.8,30.27,WNW,293,0.0,0.0,66,0.00,,,0.00,WUHU216HW,2013-01-03 02:46:00,
2013-01-02 20:51:00,38.3,27.8,30.27,WNW,293,0.0,0.0,66,0.00,,,0.00,WUHU216HW,2013-01-03 02:51:00,
2013-01-02 20:56:00,38.1,28.0,30.27,WNW,293,0.0,0.0,67,0.00,,,0.00,WUHU216HW,2013-01-03 02:56:00,
2013-01-02 21:01:00,37.9,27.9,30.27,WNW,293,0.0,0.0,67,0.00,,,0.00,WUHU216HW,2013-01-03 03:01:00,
2013-01-02 21:06:00,37.9,27.9,30.27,WNW,293,0.0,0.0,67,0.00,,,0.00,WUHU216HW,2013-01-03 03:06:00,
2013-01-02 21:11:00,37.7,27.7,30.27,WNW,293,0.0,0.0,67,0.00,,,0.00,WUHU216HW,2013-01-03 03:11:00,
2013-01-02 21:16:00,37.7,27.7,30.27,WNW,293,0.0,0.0,67,0.00,,,0.00,WUHU216HW,2013-01-03 03:16:00,
2013-01-02 21:21:00,37.5,27.9,30.27,WNW,293,0.0,0.0,68,0.00,,,0.00,WUHU216HW,2013-01-03 03:21:00,
2013-01-02 21:26:00,37.7,28.1,30.27,WNW,293,0.0,0.0,68,0.00,,,0.00,WUHU216HW,2013-01-03 03:26:00,
2013-01-02 21:32:00,37.5,27.9,30.27,WNW,293,0.0,0.0,68,0.00,,,0.00,WUHU216HW,2013-01-03 03:32:00,
2013-01-02 21:37:00,37.4,27.8,30.27,WNW,293,0.0,0.0,68,0.00,,,0.00,WUHU216HW,2013-01-03 03:37:00,
2013-01-02 21:43:00,39.3,31.0,30.27,WNW,293,0.0,0.0,72,0.00,,,0.00,WUHU216HW,2013-01-03 03:43:00,
2013-01-02 21:48:00,39.0,29.2,30.28,WNW,293,0.0,0.0,68,0.00,,,0.00,WUHU216HW,2013-01-03 03:48:00,
2013-01-02 21:53:00,38.3,28.2,30.27,WNW,293,0.0,0.0,67,0.00,,,0.00,WUHU216HW,2013-01-03 03:53:00,
2013-01-02 21:58:00,37.7,28.1,30.28,WNW,293,0.0,0.0,68,0.00,,,0.00,WUHU216HW,2013-01-03 03:58:00,
2013-01-02 22:03:00,37.5,27.9,30.28,WNW,293,0.0,0.0,68,0.00,,,0.00,WUHU216HW,2013-01-03 04:03:00,
2013-01-02 22:08:00,37.2,27.6,30.28,WNW,293,0.0,0.0,68,0.00,,,0.00,WUHU216HW,2013-01-03 04:08:00,
2013-01-02 22:13:00,37.2,27.6,30.28,WNW,293,0.0,0.0,68,0.00,,,0.00,WUHU216HW,2013-01-03 04:13:00,
2013-01-02 22:18:00,37.2,27.6,30.28,WNW,293,0.0,0.0,68,0.00,,,0.00,WUHU216HW,2013-01-03 04:18:00,
2013-01-02 22:23:00,37.2,27.6,30.28,WNW,293,0.0,0.0,68,0.00,,,0.00,WUHU216HW,2013-01-03 04:23:00,
2013-01-02 22:28:00,37.2,27.6,30.28,WNW,293,0.0,0.0,68,0.00,,,0.00,WUHU216HW,2013-01-03 04:28:00,
2013-01-02 22:33:00,37.0,27.4,30.28,WNW,293,0.0,0.0,68,0.00,,,0.00,WUHU216HW,2013-01-03 04:33:00,
2013-01-02 22:38:00,37.2,27.6,30.28,WNW,293,0.0,0.0,68,0.00,,,0.00,WUHU216HW,2013-01-03 04:38:00,
2013-01-02 22:43:00,37.0,27.4,30.28,WNW,293,0.0,0.0,68,0.00,,,0.00,WUHU216HW,2013-01-03 04:43:00,
2013-01-02 22:48:00,37.0,27.4,30.28,WNW,293,0.0,0.0,68,0.00,,,0.00,WUHU216HW,2013-01-03 04:48:00,
2013-01-02 22:53:00,37.2,27.6,30.28,WNW,293,0.0,0.0,68,0.00,,,0.00,WUHU216HW,2013-01-03 04:53:00,
2013-01-02 22:58:00,37.0,27.4,30.28,WNW,293,0.0,0.0,68,0.00,,,0.00,WUHU216HW,2013-01-03 04:58:00,
2013-01-02 23:01:00,37.0,27.4,30.28,WNW,293,0.0,0.0,68,0.00,,,0.00,WUHU216HW,2013-01-03 05:01:00,
2013-01-02 23:03:00,37.0,27.4,30.28,WNW,293,0.0,0.0,68,0.00,,,0.00,WUHU216HW,2013-01-03 05:03:00,
2013-01-02 23:04:00,37.0,27.4,30.28,WNW,293,0.0,0.0,68,0.00,,,0.00,WUHU216HW,2013-01-03 05:04:00,
2013-01-02 23:09:00,37.0,27.4,30.28,WNW,293,0.0,0.0,68,0.00,,,0.00,WUHU216HW,2013-01-03 05:09:00,
2013-01-02 23:14:00,37.0,27.4,30.28,WNW,293,0.0,0.0,68,0.00,,,0.00,WUHU216HW,2013-01-03 05:14:00,
2013-01-02 23:19:00,36.6,27.1,30.28,WNW,293,0.0,0.0,68,0.00,,,0.00,WUHU216HW,2013-01-03 05:19:00,
2013-01-02 23:24:00,36.6,27.1,30.28,WNW,293,0.0,0.0,68,0.00,,,0.00,WUHU216HW,2013-01-03 05:24:00,
2013-01-02 23:29:00,36.5,26.9,30.29,WNW,293,0.0,0.0,68,0.00,,,0.00,WUHU216HW,2013-01-03 05:29:00,
2013-01-02 23:34:00,36.5,26.9,30.28,WNW,293,0.0,0.0,68,0.00,,,0.00,WUHU216HW,2013-01-03 05:34:00,
2013-01-02 23:39:00,36.5,26.9,30.29,WNW,293,0.0,0.0,68,0.00,,,0.00,WUHU216HW,2013-01-03 05:39:00,
2013-01-02 23:44:00,36.6,26.9,30.29,WNW,293,0.0,0.0,68,0.00,,,0.00,WUHU216HW,2013-01-03 05:44:00,
2013-01-02 23:50:00,36.5,26.9,30.28,WNW,293,0.0,0.0,68,0.00,,,0.00,WUHU216HW,2013-01-03 05:50:00,
2013-01-02 23:55:00,36.5,26.9,30.29,WNW,293,0.0,0.0,68,0.00,,,0.00,WUHU216HW,2013-01-03 05:55:00,